GW7215 Weather Reports


time (UTC)temp
C
wind
direction
speed
KPH
gust
KPH
rain 1hr
cm
rain 24hr
cm
rain mn
cm
humidity
%
barometer
mb
20260506013048 26 360 0.0 8.0 0.00 0.00 0.00 82 1008.6
20260506011559 26 0 3.2 14.5 0.00 0.00 0.00 82 1008.1
20260506010051 26 134 6.4 19.3 0.00 0.00 0.00 81 1007.6
20260506004600 26 138 16.1 22.5 0.00 0.00 0.00 80 1007.6
20260506003047 27 128 11.3 20.9 0.00 0.00 0.00 79 1007.6
20260506001547 27 123 16.1 29.0 0.00 0.00 0.00 77 1007.5
20260506000047 28 153 14.5 22.5 0.00 0.00 0.00 78 1007.4
20260505234606 28 137 11.3 22.5 0.00 0.00 0.00 77 1007.5
20260505233044 28 147 12.9 22.5 0.00 0.00 0.00 75 1007.3
20260505231543 28 169 16.1 24.1 0.00 0.00 0.00 73 1007.4
20260505230042 28 163 12.9 29.0 0.00 0.00 0.00 75 1007.3
20260505224540 28 149 14.5 22.5 0.00 0.00 0.00 75 1007.1
20260505223037 28 168 16.1 27.4 0.00 0.00 0.00 74 1007.0
20260505221537 29 129 17.7 27.4 0.00 0.00 0.00 73 1007.0
20260505220100 30 159 16.1 25.7 0.00 0.00 0.00 71 1007.0
20260505214541 31 176 11.3 25.7 0.00 0.00 0.00 69 1006.8
20260505213037 31 142 12.9 27.4 0.00 0.00 0.00 66 1006.9
20260505211545 31 192 14.5 27.4 0.00 0.00 0.00 66 1007.0
20260505210037 30 204 12.9 25.7 0.00 0.00 0.00 65 1007.5
20260505204537 30 169 17.7 27.4 0.00 0.00 0.00 65 1007.5
20260505203044 30 184 14.5 25.7 0.00 0.00 0.00 66 1007.7
20260505201542 30 181 16.1 30.6 0.00 0.00 0.00 68 1007.8
20260505200040 30 186 16.1 30.6 0.00 0.00 0.00 68 1007.8
20260505194542 30 178 14.5 25.7 0.00 0.00 0.00 70 1008.0
20260505193044 29 166 16.1 29.0 0.00 0.00 0.00 70 1008.0
20260505191554 29 192 16.1 25.7 0.00 0.00 0.00 70 1008.1
20260505190043 28 212 19.3 30.6 0.00 0.00 0.00 71 1008.3
20260505184543 28 196 17.7 32.2 0.00 0.00 0.00 72 1008.4
20260505183037 28 180 14.5 35.4 0.00 0.00 0.00 73 1008.6
20260505181537 27 202 17.7 35.4 0.00 0.00 0.00 74 1008.7
20260505180052 27 176 17.7 43.5 0.00 0.00 0.00 74 1008.8
20260505174605 26 174 22.5 40.2 0.00 0.00 0.00 76 1008.8
20260505173037 26 182 20.9 38.6 0.00 0.00 0.00 76 1008.5
20260505171537 26 181 24.1 40.2 0.00 0.00 0.00 77 1008.3
20260505170046 26 171 19.3 37.0 0.00 0.00 0.00 78 1008.6
20260505164540 26 146 19.3 32.2 0.00 0.00 0.00 79 1008.5
20260505163045 26 188 19.3 30.6 0.00 0.00 0.00 79 1008.7
20260505161548 25 186 17.7 32.2 0.00 0.00 0.00 80 1008.8
20260505153051 24 171 17.7 35.4 0.00 0.00 0.00 84 1008.7
20260505151550 23 186 22.5 32.2 0.00 0.00 0.00 84 1008.9
20260505124544 20 166 14.5 24.1 0.00 0.00 0.00 92 1008.0
20260505123102 20 163 14.5 25.7 0.00 0.00 0.00 92 1007.8
20260505121545 20 169 14.5 25.7 0.00 0.00 0.00 92 1007.7
20260505120048 20 168 14.5 25.7 0.00 0.00 0.00 92 1007.5
20260505114609 20 163 12.9 24.1 0.00 0.00 0.00 92 1007.5
20260505113044 20 156 16.1 27.4 0.00 0.00 0.00 92 1007.3
20260505111602 20 192 14.5 27.4 0.00 0.00 0.00 91 1007.3
20260505101540 20 169 19.3 30.6 0.00 0.00 0.00 90 1007.3
20260505100037 20 180 19.3 32.2 0.00 0.00 0.00 90 1007.3
20260505094539 21 170 17.7 35.4 0.00 0.00 0.00 89 1007.4
20260505093047 21 186 19.3 38.6 0.00 0.00 0.00 88 1007.6
20260505091543 21 157 20.9 35.4 0.00 0.00 0.00 88 1007.7
20260505090048 21 172 19.3 29.0 0.00 0.00 0.00 89 1007.8
20260505084538 21 177 17.7 29.0 0.00 0.00 0.00 90 1007.7
20260505083046 20 141 16.1 37.0 0.00 0.00 0.00 90 1007.6
20260505081546 20 157 12.9 30.6 0.00 0.00 0.00 90 1007.9
20260505080040 20 157 17.7 33.8 0.00 0.00 0.00 89 1008.0
20260505074545 20 146 17.7 29.0 0.00 0.00 0.00 89 1008.3
20260505073037 21 161 17.7 33.8 0.00 0.00 0.00 88 1008.6
20260505071540 21 163 14.5 30.6 0.00 0.00 0.00 88 1008.9
20260505070045 21 165 14.5 30.6 0.00 0.00 0.00 87 1009.2
20260505064552 21 148 14.5 32.2 0.00 0.00 0.00 86 1009.2
20260505063038 21 168 16.1 30.6 0.00 0.00 0.00 86 1009.4
20260505061544 21 167 14.5 32.2 0.00 0.00 0.00 85 1009.5
20260505060044 21 157 16.1 30.6 0.00 0.00 0.00 84 1009.4
20260505054551 21 155 19.3 33.8 0.00 0.00 0.00 83 1009.3
20260505053038 21 165 16.1 27.4 0.00 0.00 0.00 83 1009.4
20260505051537 22 166 17.7 25.7 0.00 0.00 0.00 82 1009.7
20260505041548 22 155 16.1 29.0 0.00 0.00 0.00 78 1009.8
20260505040048 22 160 16.1 27.4 0.00 0.00 0.00 78 1009.9
20260505034545 22 155 12.9 25.7 0.00 0.00 0.00 78 1009.9
20260505033042 23 162 17.7 29.0 0.00 0.00 0.00 77 1009.6
20260505031541 22 152 12.9 30.6 0.00 0.00 0.00 78 1009.7
20260505030045 22 171 14.5 25.7 0.00 0.00 0.00 78 1009.8
20260505024544 22 144 14.5 24.1 0.00 0.00 0.00 78 1009.5
20260505023044 22 137 12.9 20.9 0.00 0.00 0.00 78 1009.7
20260505021547 22 140 12.9 22.5 0.00 0.00 0.00 78 1009.6
20260505020041 22 174 12.9 22.5 0.00 0.00 0.00 78 1009.4
20260505014542 22 176 12.9 22.5 0.00 0.00 0.00 78 1009.6